Time,TemperatureF,DewpointF,PressureIn,WindDirection,WindDirectionDegrees,WindSpeedMPH,WindSpeedGustMPH,Humidity,HourlyPrecipIn,Conditions,Clouds,dailyrainin,SoftwareType,DateUTC
2013-01-07 00:06:00,45.7,45.7,30.08,East,100,0.0,0.0,100,0.00,,,0.10,Wunderground v.1.15,2013-01-07 08:06:00,
2013-01-07 00:36:00,46.1,46.1,30.09,NE,45,0.0,0.0,100,0.00,,,0.01,Wunderground v.1.15,2013-01-07 08:36:00,
2013-01-07 01:06:00,46.4,46.4,30.07,ENE,58,0.0,0.0,100,0.04,,,0.03,Wunderground v.1.15,2013-01-07 09:06:00,
2013-01-07 01:36:00,46.5,46.5,30.07,NW,322,0.0,0.0,100,0.00,,,0.03,Wunderground v.1.15,2013-01-07 09:36:00,
2013-01-07 02:06:00,46.7,46.7,30.08,WNW,292,0.0,0.0,100,0.00,,,0.04,Wunderground v.1.15,2013-01-07 10:06:00,
2013-01-07 02:35:00,47.0,47.0,30.08,NNE,18,0.0,0.0,100,0.00,,,0.04,Wunderground v.1.15,2013-01-07 10:35:00,
2013-01-07 03:05:00,47.4,47.4,30.09,SW,230,0.0,0.0,100,0.00,,,0.06,Wunderground v.1.15,2013-01-07 11:05:00,
2013-01-07 03:35:00,47.9,47.9,30.07,NE,38,0.0,0.0,100,0.00,,,0.07,Wunderground v.1.15,2013-01-07 11:35:00,
2013-01-07 04:05:00,48.2,48.2,30.07,NE,56,0.0,0.0,100,0.00,,,0.08,Wunderground v.1.15,2013-01-07 12:05:00,
2013-01-07 04:35:00,48.5,48.5,30.07,ESE,117,0.0,0.0,100,0.09,,,0.11,Wunderground v.1.15,2013-01-07 12:35:00,
2013-01-07 05:05:00,48.6,48.6,30.06,SSW,200,0.0,0.0,100,0.00,,,0.13,Wunderground v.1.15,2013-01-07 13:05:00,
2013-01-07 05:35:00,48.9,48.9,30.05,West,280,0.0,0.0,100,0.10,,,0.16,Wunderground v.1.15,2013-01-07 13:35:00,
2013-01-07 06:05:00,49.2,49.2,30.07,North,356,0.0,0.0,100,0.17,,,0.22,Wunderground v.1.15,2013-01-07 14:05:00,
2013-01-07 06:35:00,49.4,49.4,30.08,SW,230,0.0,0.0,100,0.10,,,0.26,Wunderground v.1.15,2013-01-07 14:35:00,
2013-01-07 07:05:00,49.5,49.5,30.07,SSW,212,0.0,0.0,100,0.15,,,0.30,Wunderground v.1.15,2013-01-07 15:05:00,
2013-01-07 07:35:00,49.6,49.6,30.07,NW,305,0.0,0.0,100,0.16,,,0.36,Wunderground v.1.15,2013-01-07 15:35:00,
2013-01-07 08:05:00,49.8,49.8,30.09,WSW,246,0.0,0.0,100,0.04,,,0.38,Wunderground v.1.15,2013-01-07 16:05:00,
2013-01-07 08:35:00,49.9,49.9,30.10,West,275,0.0,0.0,100,0.05,,,0.40,Wunderground v.1.15,2013-01-07 16:35:00,
2013-01-07 09:05:00,50.1,50.1,30.11,SW,229,0.0,0.0,100,0.12,,,0.42,Wunderground v.1.15,2013-01-07 17:05:00,
2013-01-07 09:35:00,50.4,50.4,30.13,WSW,254,0.0,0.0,100,0.00,,,0.43,Wunderground v.1.15,2013-01-07 17:35:00,
2013-01-07 10:05:00,50.5,50.5,30.14,NE,45,0.0,0.0,100,0.11,,,0.46,Wunderground v.1.15,2013-01-07 18:05:00,
2013-01-07 10:35:00,51.0,51.0,30.16,SW,234,0.0,0.0,100,0.04,,,0.49,Wunderground v.1.15,2013-01-07 18:35:00,
2013-01-07 11:05:00,51.7,51.7,30.17,WSW,244,0.0,0.0,100,0.00,,,0.51,Wunderground v.1.15,2013-01-07 19:05:00,
2013-01-07 11:35:00,51.9,51.9,30.16,SW,219,0.0,0.0,100,0.04,,,0.53,Wunderground v.1.15,2013-01-07 19:35:00,
2013-01-07 12:05:00,51.9,51.9,30.17,SW,216,0.0,0.0,100,0.00,,,0.54,Wunderground v.1.15,2013-01-07 20:05:00,
2013-01-07 12:35:00,51.4,51.4,30.16,SW,236,0.0,0.0,100,0.00,,,0.55,Wunderground v.1.15,2013-01-07 20:35:00,
2013-01-07 13:05:00,51.4,51.4,30.16,SSW,199,0.0,0.0,100,0.00,,,0.55,Wunderground v.1.15,2013-01-07 21:05:00,
2013-01-07 13:35:00,51.0,51.0,30.16,SW,220,0.0,0.0,100,0.00,,,0.56,Wunderground v.1.15,2013-01-07 21:35:00,
2013-01-07 14:05:00,51.3,51.3,30.17,SW,219,0.0,0.0,100,0.00,,,0.57,Wunderground v.1.15,2013-01-07 22:05:00,
2013-01-07 14:35:00,51.3,51.3,30.17,SW,219,0.0,0.0,100,0.00,,,0.57,Wunderground v.1.15,2013-01-07 22:35:00,
2013-01-07 15:05:00,51.3,51.3,30.19,SW,219,0.0,0.0,100,0.00,,,0.57,Wunderground v.1.15,2013-01-07 23:05:00,
2013-01-07 15:35:00,51.1,51.1,30.20,SSW,213,0.0,0.0,100,0.00,,,0.57,Wunderground v.1.15,2013-01-07 23:35:00,
2013-01-07 16:05:00,50.8,50.8,30.20,SSW,213,0.0,0.0,100,0.00,,,0.57,Wunderground v.1.15,2013-01-08 00:05:00,
2013-01-07 16:35:00,50.4,50.4,30.19,SSW,213,0.0,0.0,100,0.00,,,0.57,Wunderground v.1.15,2013-01-08 00:35:00,
2013-01-07 17:05:00,50.1,50.1,30.19,SSW,213,0.0,0.0,100,0.00,,,0.57,Wunderground v.1.15,2013-01-08 01:05:00,
2013-01-07 17:35:00,49.8,49.8,30.18,SSW,213,0.0,0.0,100,0.00,,,0.57,Wunderground v.1.15,2013-01-08 01:35:00,
2013-01-07 18:05:00,49.8,49.8,30.20,SSW,213,0.0,0.0,100,0.00,,,0.57,Wunderground v.1.15,2013-01-08 02:05:00,
2013-01-07 18:35:00,49.8,49.8,30.19,SSW,213,0.0,0.0,100,0.00,,,0.57,Wunderground v.1.15,2013-01-08 02:35:00,
2013-01-07 19:05:00,49.5,49.5,30.19,SSW,213,0.0,0.0,100,0.00,,,0.57,Wunderground v.1.15,2013-01-08 03:05:00,
2013-01-07 19:35:00,49.4,49.4,30.19,SSW,213,0.0,0.0,100,0.00,,,0.57,Wunderground v.1.15,2013-01-08 03:35:00,
2013-01-07 20:05:00,49.2,49.2,30.19,SSW,213,0.0,0.0,100,0.00,,,0.57,Wunderground v.1.15,2013-01-08 04:05:00,
2013-01-07 20:35:00,49.2,49.2,30.19,SSW,213,0.0,0.0,100,0.00,,,0.57,Wunderground v.1.15,2013-01-08 04:35:00,
2013-01-07 21:05:00,49.4,49.4,30.20,SSW,213,0.0,0.0,100,0.00,,,0.57,Wunderground v.1.15,2013-01-08 05:05:00,
2013-01-07 21:35:00,49.5,49.5,30.20,SSW,213,0.0,0.0,100,0.00,,,0.57,Wunderground v.1.15,2013-01-08 05:35:00,
2013-01-07 22:05:00,49.5,49.5,30.19,SSW,213,0.0,0.0,100,0.00,,,0.57,Wunderground v.1.15,2013-01-08 06:05:00,
2013-01-07 22:35:00,49.4,49.4,30.19,SSW,213,0.0,0.0,100,0.00,,,0.57,Wunderground v.1.15,2013-01-08 06:35:00,
2013-01-07 23:05:00,49.4,49.4,30.20,SSW,213,0.0,0.0,100,0.00,,,0.57,Wunderground v.1.15,2013-01-08 07:05:00,
2013-01-07 23:35:00,49.2,49.2,30.20,SSW,213,0.0,0.0,100,0.00,,,0.58,Wunderground v.1.15,2013-01-08 07:35:00,